This is the latest recevied weather packets stored in our database for station/object OE3APM-13. If no packets are shown the sender has not sent any weather packets the latest 10 day(s).
| Time | Temp. | Humidity | Pressure | Rain* | Wind** | Luminosity | Snow |
|---|---|---|---|---|---|---|---|
| 1788622355 | 21.67° C | 49% | 1020.8 hPa | 0 mm | - | 56 W/m² | - |
| 1788622053 | 21.67° C | 50% | 1020.7 hPa | 0 mm | - | 283 W/m² | - |
| 1788621745 | 21.67° C | 51% | 1020.8 hPa | 0 mm | - | 320 W/m² | - |
| 1788621446 | 21.67° C | 51% | 1020.7 hPa | 0 mm | - | 86 W/m² | - |
| 1788621138 | 21.67° C | 49% | 1020.8 hPa | 0 mm | - | 51 W/m² | - |
| 1788620832 | 22.22° C | 49% | 1020.6 hPa | 0 mm | - | 118 W/m² | - |
| 1788620528 | 22.22° C | 50% | 1020.7 hPa | 0 mm | - | 399 W/m² | - |
| 1788620227 | 22.22° C | 48% | 1020.7 hPa | 0 mm | - | 56 W/m² | - |
| 1788619927 | 22.22° C | 49% | 1020.5 hPa | 0 mm | - | 385 W/m² | - |
| 1788619625 | 22.22° C | 51% | 1020.6 hPa | 0 mm | - | 446 W/m² | - |
| 1788619325 | 22.22° C | 52% | 1020.6 hPa | 0 mm | - | 490 W/m² | - |
| 1788619024 | 21.67° C | 53% | 1020.7 hPa | 0 mm | - | 515 W/m² | - |
| 1788618723 | 21.67° C | 51% | 1020.7 hPa | 0 mm | - | 153 W/m² | - |
| 1788618422 | 21.67° C | 52% | 1020.8 hPa | 0 mm | - | 534 W/m² | - |
| 1788618123 | 21.67° C | 52% | 1020.8 hPa | 0 mm | - | 141 W/m² | - |
| 1788617824 | 21.67° C | 52% | 1020.9 hPa | 0 mm | - | 550 W/m² | - |
| 1788617525 | 21.67° C | 54% | 1020.9 hPa | 0 mm | - | 127 W/m² | - |
| 1788617221 | 21.11° C | 56% | 1020.9 hPa | 0 mm | - | 657 W/m² | - |
| 1788616921 | 20.56° C | 58% | 1020.8 hPa | 0 mm | - | 225 W/m² | - |
| 1788616621 | 20.56° C | 61% | 1020.8 hPa | 0 mm | - | 664 W/m² | - |
| 1788616319 | 20° C | 59% | 1020.9 hPa | 0 mm | - | 118 W/m² | - |
| 1788616012 | 20.56° C | 58% | 1020.9 hPa | 0 mm | - | 102 W/m² | - |
| 1788615709 | 20.56° C | 59% | 1021 hPa | 0 mm | - | 139 W/m² | - |
| 1788615404 | 20.56° C | 58% | 1021 hPa | 0 mm | - | 153 W/m² | - |
| 1788615103 | 20.56° C | 58% | 1020.9 hPa | 0 mm | - | 156 W/m² | - |
* Rain latest hour (hover to see other rain measurements)
** Current wind speed in m/s (hover to see current wind gust speed)